Date String (YYYY-MM-DD hh:mm:ss) UTC,Instrument flags,Ambient pressure (hPa),Sample flow (lpm),Bypass flow (lpm),Sample temperature (°C),Ambient temperature (°C),ASC tube jacket temperature (°C),LED temperature (°C),Box temperature (°C),Sample RH (%),Span deviation,Mass concentration (μg/m³),Mass concentration (μg/m³),Mass concentration (μg/m³)
DateTimeUTC,F1_M11,P_M11,Q1_M11,Q2_M11,T1_M11,T2_M11,T3_M11,T4_M11,T5_M11,U1_M11,ZSPAN_M11,X0_M11,X2_M11,X1_M11
2022-10-11 12:00:00,,0820.8,5.01,0.00,28.9,27.3,00.0,37.7,30.7,09.9,0000.0,0009.16,0004.93,0004.42
2022-10-11 12:01:00,,0820.6,4.99,0.00,28.9,27.3,00.0,37.7,30.7,10.1,0000.0,0012.98,0005.01,0004.41
2022-10-11 12:02:00,,0820.7,5.01,0.00,28.9,27.3,00.0,37.7,30.7,10.1,0000.0,0013.58,0005.04,0004.41
2022-10-11 12:03:00,,0820.9,4.99,0.00,28.9,27.3,00.0,37.7,30.7,10.2,0000.0,0014.46,0005.01,0004.39
2022-10-11 12:04:00,,0820.9,5.01,0.00,28.9,27.2,00.0,37.7,30.7,10.3,0000.0,0014.26,0004.96,0004.37
2022-10-11 12:05:00,,0820.9,4.99,0.00,28.9,27.2,00.0,37.7,30.7,10.2,0000.0,0014.32,0004.97,0004.37
2022-10-11 12:06:00,,0820.9,5.01,0.00,28.9,27.2,00.0,37.7,30.7,10.1,0000.0,0014.60,0005.04,0004.37
2022-10-11 12:07:00,,0820.9,5.00,0.00,28.9,27.2,00.0,37.7,30.7,10.1,0000.0,0014.57,0005.06,0004.36
2022-10-11 12:08:00,,0820.9,5.00,0.00,28.9,27.2,00.0,37.7,30.7,10.1,0000.0,0014.62,0005.07,0004.35
2022-10-11 12:09:00,,0821.0,5.00,0.00,28.9,27.2,00.0,37.7,30.7,10.1,0000.0,0015.45,0005.07,0004.34
2022-10-11 12:10:00,,0821.0,5.00,0.00,28.9,27.2,00.0,37.7,30.7,10.2,0000.0,0015.22,0005.05,0004.33
2022-10-11 12:11:00,,0821.0,5.01,0.00,28.9,27.2,00.0,37.7,30.6,10.2,0000.0,0015.21,0005.02,0004.33
2022-10-11 12:12:00,,0821.0,5.00,0.00,28.9,27.2,00.0,37.7,30.6,10.2,0000.0,0011.63,0004.92,0004.31
2022-10-11 12:13:00,,0821.0,5.00,0.00,28.9,27.2,00.0,37.7,30.7,10.2,0000.0,0010.24,0004.88,0004.28
2022-10-11 12:14:00,,0821.1,5.01,0.00,28.9,27.2,00.0,37.7,30.6,10.2,0000.0,0009.49,0004.86,0004.26
2022-10-11 12:15:00,,0821.1,5.00,0.00,28.9,27.3,00.0,37.7,30.7,10.3,0000.0,0009.41,0004.86,0004.24
2022-10-11 12:16:00,,0821.1,4.99,0.00,28.9,27.3,00.0,37.7,30.7,10.3,0000.0,0009.50,0004.83,0004.22
2022-10-11 12:17:00,,0821.1,5.01,0.00,28.9,27.3,00.0,37.7,30.7,09.9,0000.0,0009.28,0004.75,0004.19
2022-10-11 12:18:00,,0821.1,5.00,0.00,28.9,27.3,00.0,37.7,30.7,09.7,0000.0,0008.99,0004.64,0004.15
2022-10-11 12:19:00,,0821.0,5.00,0.00,28.9,27.3,00.0,37.7,30.7,09.8,0000.0,0008.97,0004.60,0004.12
2022-10-11 12:20:00,,0821.0,4.99,0.00,28.8,27.3,00.0,37.7,30.6,09.7,0000.0,0008.51,0004.55,0004.10
2022-10-11 12:21:00,,0821.0,5.01,0.00,28.8,27.3,00.0,37.7,30.7,09.5,0000.0,0007.92,0004.53,0004.08
2022-10-11 12:22:00,,0820.9,5.00,0.00,28.8,27.3,00.0,37.7,30.7,09.3,0000.0,0007.72,0004.49,0004.04
2022-10-11 12:23:00,,0821.0,5.00,0.00,28.8,27.2,00.0,37.7,30.6,09.4,0000.0,0007.73,0004.49,0004.02
2022-10-11 12:24:00,,0821.0,5.00,0.00,28.8,27.2,00.0,37.7,30.6,09.4,0000.0,0007.53,0004.44,0004.01
2022-10-11 12:25:00,,0821.1,5.00,0.00,28.8,27.2,00.0,37.7,30.7,09.4,0000.0,0007.37,0004.37,0003.99
2022-10-11 12:26:00,,0821.1,5.00,0.00,28.8,27.2,00.0,37.7,30.6,09.4,0000.0,0007.32,0004.35,0003.98
2022-10-11 12:27:00,,0821.1,5.00,0.00,28.8,27.2,00.0,37.7,30.6,09.5,0000.0,0007.35,0004.32,0003.96
2022-10-11 12:28:00,,0821.1,5.01,0.00,28.8,27.2,00.0,37.7,30.6,09.6,0000.0,0007.25,0004.30,0003.94
2022-10-11 12:29:00,,0821.1,5.00,0.00,28.8,27.2,00.0,37.6,30.6,09.6,0000.0,0007.48,0004.35,0003.95
2022-10-11 12:30:00,,0821.2,4.99,0.00,28.8,27.3,00.0,37.6,30.7,09.5,0000.0,0007.41,0004.33,0003.94
2022-10-11 12:31:00,,0821.1,5.00,0.00,28.8,27.3,00.0,37.6,30.7,09.7,0000.0,0007.36,0004.31,0003.93
2022-10-11 12:32:00,,0821.2,5.00,0.00,28.8,27.3,00.0,37.6,30.7,09.9,0000.0,0007.37,0004.31,0003.93
2022-10-11 12:33:00,,0821.2,5.01,0.00,28.8,27.3,00.0,37.6,30.7,10.0,0000.0,0007.72,0004.30,0003.93
2022-10-11 12:34:00,,0821.1,4.99,0.00,28.8,27.4,00.0,37.6,30.7,10.0,0000.0,0007.72,0004.28,0003.91
2022-10-11 12:35:00,,0821.2,5.00,0.00,28.8,27.4,00.0,37.6,30.7,10.1,0000.0,0007.70,0004.26,0003.90
2022-10-11 12:36:00,,0821.2,5.02,0.00,28.9,27.4,00.0,37.6,30.7,10.2,0000.0,0008.01,0004.24,0003.89
2022-10-11 12:37:00,,0821.1,5.00,0.00,28.9,27.5,00.0,37.6,30.7,10.2,0000.0,0008.10,0004.24,0003.87
2022-10-11 12:38:00,,0821.1,4.99,0.00,28.9,27.5,00.0,37.7,30.7,10.1,0000.0,0007.91,0004.24,0003.86
2022-10-11 12:39:00,,0821.1,5.01,0.00,28.9,27.5,00.0,37.7,30.7,10.0,0000.0,0007.90,0004.24,0003.85
2022-10-11 12:40:00,,0821.1,5.00,0.00,28.9,27.5,00.0,37.7,30.7,09.6,0000.0,0007.77,0004.21,0003.84
2022-10-11 12:41:00,,0821.0,4.99,0.00,28.9,27.5,00.0,37.7,30.8,09.4,0000.0,0007.84,0004.23,0003.84
2022-10-11 12:42:00,,0821.1,5.01,0.00,28.9,27.4,00.0,37.7,30.7,09.4,0000.0,0007.86,0004.22,0003.83
2022-10-11 12:43:00,,0821.0,5.01,0.00,28.9,27.4,00.0,37.7,30.7,09.4,0000.0,0008.43,0004.25,0003.82
2022-10-11 12:44:00,,0820.9,4.99,0.00,28.9,27.4,00.0,37.7,30.7,09.3,0000.0,0009.02,0004.29,0003.82
2022-10-11 12:45:00,,0821.0,5.00,0.00,28.9,27.3,00.0,37.7,30.7,09.3,0000.0,0009.32,0004.32,0003.82
2022-10-11 12:46:00,,0821.0,5.01,0.00,28.9,27.3,00.0,37.7,30.7,09.4,0000.0,0009.42,0004.35,0003.83
2022-10-11 12:47:00,,0820.9,4.99,0.00,28.9,27.3,00.0,37.7,30.7,09.4,0000.0,0009.18,0004.34,0003.84
2022-10-11 12:48:00,,0821.1,5.00,0.00,28.9,27.3,00.0,37.7,30.7,09.4,0000.0,0008.93,0004.35,0003.85
2022-10-11 12:49:00,,0821.1,5.01,0.00,28.9,27.3,00.0,37.7,30.7,09.5,0000.0,0008.83,0004.35,0003.87
2022-10-11 12:50:00,,0821.1,5.00,0.00,28.9,27.3,00.0,37.7,30.7,09.4,0000.0,0009.48,0004.35,0003.87
2022-10-11 12:51:00,,0821.0,4.99,0.00,28.9,27.3,00.0,37.7,30.7,09.3,0000.0,0009.46,0004.32,0003.86
2022-10-11 12:52:00,,0821.1,5.01,0.00,28.9,27.3,00.0,37.7,30.7,09.4,0000.0,0009.41,0004.32,0003.86
2022-10-11 12:53:00,,0821.2,5.00,0.00,28.9,27.3,00.0,37.7,30.6,09.4,0000.0,0009.50,0004.36,0003.87
2022-10-11 12:54:00,,0821.1,4.99,0.00,28.9,27.3,00.0,37.7,30.7,09.4,0000.0,0009.42,0004.32,0003.86
2022-10-11 12:55:00,,0821.2,5.00,0.00,28.9,27.3,00.0,37.7,30.7,09.3,0000.0,0008.70,0004.27,0003.87
2022-10-11 12:56:00,,0821.1,5.01,0.00,28.9,27.3,00.0,37.7,30.7,09.4,0000.0,0008.32,0004.24,0003.86
2022-10-11 12:57:00,,0821.1,4.99,0.00,28.9,27.4,00.0,37.7,30.7,09.3,0000.0,0008.31,0004.23,0003.86
2022-10-11 12:58:00,,0821.1,5.00,0.00,28.9,27.4,00.0,37.7,30.7,09.3,0000.0,0008.35,0004.25,0003.84
2022-10-11 12:59:00,,0821.1,5.01,0.00,28.9,27.4,00.0,37.7,30.7,09.3,0000.0,0008.41,0004.25,0003.83
